Vertical_Velocity
-0 -1 -1 -2 -2 1 0 -2 -0 -2 -2 -1 -0 -2 -2 -0 0 -3 -1 -3 -2 -1 -1 -0 -2 -1 -2 -1 2 3 -0 -3 -0 1 -0 1 4 1 -0 -1 -2 -3 1 -3 -1
-1 -1 0 -1 -3 -2 -1 -1 -1 -1 -1 1 -2 -1 -2 0 -2 -3 0 -1 -2 -2 -1 1 -2 -3 -3 -3 -1 3 -3 5 1 4 1 6 2 3 4 -0 2 2 -7 1 3
-1 -0 -1 -3 -2 -2 -1 1 1 -1 -0 0 -1 0 -3 -3 -2 -2 -1 -2 -1 -1 -1 -2 -1 -2 -0 -4 1 -3 -2 1 -3 -1 1 -1 1 -5 3 0 0 2 0 4 3
-2 -2 -3 -2 0 -2 -3 -1 -1 -1 1 0 -1 0 -2 -2 -8 2 -2 -1 -0 -0 -1 0 0 -1 -1 -2 -2 -4 3 1 -3 -1 1 2 -2 -0 -0 1 1 1 -0 -5 -1
-1 -1 -1 0 -1 0 0 -1 -1 1 1 -1 -0 -3 0 -2 -4 1 -1 -0 1 0 0 0 1 1 0 -1 -1 -2 1 -2 -0 -0 -0 0 1 1 -2 -2 4 2 2 -0 1
-1 -2 -4 -2 0 -0 1 -2 -2 -1 -1 -1 -1 -1 -4 -3 1 -1 -1 -0 -0 -0 -1 3 1 0 -1 -0 -1 -1 -0 -1 -2 -3 -0 -3 0 -1 2 1 -0 1 1 2 -2
-2 -2 0 -0 -3 -4 2 1 -2 -2 -2 -1 -2 -2 -2 2 -3 1 1 -2 -1 -1 -4 4 1 2 -0 -1 0 1 -1 3 2 3 -3 -1 -3 -8 -2 -0 1 -0 1 1 0
-1 -2 -4 0 1 -1 -3 -4 -1 -0 0 -2 -1 -6 1 -4 1 1 -2 -4 3 -2 -3 -1 -3 -1 1 -0 -1 -2 -0 -4 -2 3 -2 4 -8 -3 2 2 1 0 1 -3 1
-2 -2 0 -2 -2 -1 0 -1 -0 1 -1 -2 -2 2 -0 -3 1 0 2 -1 -5 0 0 -1 -1 1 -0 -1 -3 -0 -1 -1 1 3 2 3 -6 -2 -1 -3 1 2 1 -1 -2
-2 -2 -0 2 -0 -3 -1 -4 -0 2 -0 -2 -2 -4 3 -9 -2 -1 -1 3 -0 -0 -0 3 -0 -1 -1 -1 -3 0 -2 -4 1 1 0 -1 -8 3 1 -3 1 -1 -0 -5 2
0 -3 0 -0 0 -1 -5 -4 -0 -1 1 1 4 -4 1 3 -3 -6 2 3 3 1 0 -1 -4 -1 -2 -4 -0 -0 -1 -2 5 1 1 4 -6 4 2 -1 -0 1 -5 1 -0
3 1 -1 0 2 -2 -2 -1 -3 -2 -8 1 2 3 -1 -1 -0 -3 1 1 0 0 -1 -4 -6 -1 -1 -1 -2 3 0 -2 -4 -1 -2 6 -5 3 1 -2 -2 -3 4 1 -5
-1 3 1 -1 0 -3 0 -1 1 -4 -0 1 -5 1 -1 0 0 0 1 0 1 1 4 2 -1 -1 1 -2 1 2 0 -0 1 -1 4 -2 -3 1 -1 -2 -1 2 -4 -4 -5
-0 2 -1 -1 -0 0 -1 -2 1 -1 0 -2 -4 -2 -1 -1 -4 -1 -5 0 0 -2 0 2 4 1 0 -0 1 0 2 -0 1 2 -2 -1 -9 -1 1 -2 -0 -2 2 -2 -2
-3 -0 -1 3 -6 -1 1 -6 3 0 -5 -2 -1 3 -1 -2 -1 -3 -11 -7 1 5 0 2 -2 -1 -1 -0 1 -2 2 1 0 2 2 -1 2 3 0 1 -0 2 0 -1 -0
-4 4 -5 1 -3 -2 -2 0 5 -4 -6 2 1 2 -3 0 0 -6 -7 1 3 -0 2 3 -0 -0 0 -2 0 2 0 1 0 1 -1 2 2 1 -1 -3 1 4 1 0 -0
-6 -2 2 -3 -4 -3 -1 -1 2 -4 -2 3 1 -1 -3 -0 -1 -3 -4 -2 -0 0 0 0 -2 1 -1 -2 1 3 -0 -3 -1 0 -6 1 1 1 1 0 -1 -6 -1 -0 -3
1 -2 -3 -2 -2 1 -0 -3 0 2 2 0 3 -1 -4 -2 -2 3 -2 0 3 -0 -0 0 -2 -2 -1 -1 1 2 -1 -0 -1 -1 -3 1 -3 1 -2 1 -3 -5 -3 -4 -0
-7 2 -0 -3 -2 -1 2 -2 -5 -1 1 -0 -9 0 2 2 1 1 2 4 2 2 -3 -1 -1 -1 -2 1 4 1 -0 1 0 1 0 0 0 -1 -1 2 3 2 -4 1 -3
3 -5 0 -4 1 -4 -0 -2 2 -0 1 0 -1 3 -4 -2 0 1 -4 -0 -1 1 -1 1 -4 -2 -1 0 3 -2 -1 -1 1 -3 -2 -3 1 0 -1 1 -4 2 -0 -1 0
4 -9 0 7 -5 2 -4 -2 -2 -2 4 1 -2 -3 -1 -3 1 -1 6 1 2 1 3 1 -0 -2 -1 2 0 1 2 0 0 -0 -3 -1 1 0 -0 -2 -4 -3 -3 -1 -4
-2 -2 0 -5 2 2 -1 -0 -1 -0 2 -0 -0 -4 -1 -1 -3 2 0 -2 -1 2 2 -1 -2 -4 -2 2 2 -5 -2 2 1 -0 0 1 -3 -1 1 0 -2 -3 -2 1 -4
0 -1 1 -2 -1 1 1 -3 -1 -1 2 -1 -1 -1 2 -1 -1 -0 -0 0 1 0 0 -6 0 -3 -0 1 -1 -2 -3 2 1 0 -2 -2 -1 1 -1 -3 -3 -3 9 -7 -0
-2 -1 -1 -0 1 -1 -1 -1 -1 -3 -2 1 2 -0 -1 -1 -1 -3 -1 -2 -1 -1 0 3 1 -2 -4 -2 2 1 3 2 2 0 1 -8 -1 3 -4 1 -1 -7 5 -5 3
-3 -1 -1 1 0 -0 -0 0 -0 -1 -2 2 2 1 -2 -2 -2 -1 -0 -2 -1 -0 -0 2 -1 0 -2 -3 -2 -3 1 2 -1 2 -3 -0 -1 8 -3 1 -2 -11 5 2 9
1 -1 -1 1 -1 -1 -2 -1 1 -1 -3 -1 2 0 -1 0 3 -3 1 3 2 1 1 -0 -1 0 -7 -2 2 -3 1 2 1 1 -2 3 -0 1 -4 1 -0 -15 8 2 9
4 -3 -1 1 -1 -2 -3 -0 0 0 -2 1 0 -1 -1 0 1 0 1 1 3 4 4 3 1 1 -3 2 0 -2 -1 1 -0 3 3 0 4 0 -6 3 -1 -2 -5 1 6
Height
3126 3124 3121 3119 3117 3115 3112 3110 3108 3105 3102 3100 3097 3094 3091 3089 3087 3084 3082 3082 3079 3078 3077 3077 3076 3075 3074 3073 3073 3071 3070 3067 3068 3068 3067 3067 3067 3067 3066 3066 3066 3065 3064 3063 3064
3122 3120 3118 3117 3115 3113 3110 3108 3105 3103 3100 3097 3094 3091 3088 3086 3084 3080 3080 3078 3076 3075 3074 3073 3071 3070 3069 3069 3068 3068 3065 3065 3064 3064 3063 3063 3062 3062 3063 3061 3060 3061 3059 3059 3060
3119 3116 3114 3112 3110 3109 3106 3104 3102 3099 3096 3094 3092 3088 3085 3082 3082 3079 3077 3074 3072 3070 3069 3068 3067 3065 3064 3062 3062 3061 3060 3060 3058 3060 3061 3058 3059 3057 3057 3057 3055 3056 3055 3055 3053
3115 3113 3110 3108 3106 3104 3102 3100 3098 3095 3093 3090 3087 3084 3081 3080 3082 3077 3074 3071 3069 3067 3066 3064 3063 3061 3061 3058 3057 3057 3056 3055 3053 3055 3055 3054 3053 3052 3051 3052 3051 3050 3048 3045 3043
3109 3107 3105 3103 3101 3099 3096 3094 3092 3090 3088 3085 3082 3080 3079 3078 3076 3072 3069 3067 3066 3064 3062 3061 3059 3057 3056 3055 3054 3051 3052 3050 3050 3050 3050 3048 3047 3046 3046 3045 3045 3045 3043 3040 3037
3104 3101 3099 3097 3094 3093 3091 3088 3087 3085 3084 3080 3077 3076 3075 3074 3070 3068 3066 3064 3062 3060 3058 3056 3055 3053 3052 3052 3050 3049 3046 3046 3045 3044 3042 3042 3041 3038 3041 3039 3037 3036 3035 3032 3028
3098 3096 3094 3091 3089 3087 3086 3083 3082 3080 3079 3076 3073 3071 3070 3069 3066 3064 3062 3060 3057 3055 3053 3053 3051 3050 3048 3047 3044 3043 3040 3038 3039 3038 3035 3035 3033 3031 3031 3030 3029 3029 3027 3025 3024
3093 3090 3087 3085 3083 3081 3079 3078 3076 3074 3073 3072 3068 3066 3066 3063 3061 3060 3058 3055 3053 3051 3049 3048 3047 3046 3043 3042 3039 3038 3036 3031 3032 3031 3028 3029 3025 3027 3026 3025 3025 3023 3021 3019 3018
3087 3084 3082 3079 3077 3075 3074 3073 3071 3069 3067 3066 3064 3062 3060 3059 3058 3056 3054 3051 3048 3047 3045 3043 3042 3041 3038 3036 3035 3033 3030 3029 3028 3026 3025 3025 3022 3022 3021 3019 3019 3017 3015 3012 3012
3081 3079 3076 3074 3072 3069 3068 3067 3065 3064 3062 3062 3060 3061 3057 3052 3051 3049 3048 3046 3045 3043 3043 3041 3040 3037 3035 3033 3032 3030 3027 3026 3026 3026 3022 3020 3017 3017 3016 3013 3012 3010 3009 3008 3005
3075 3073 3071 3069 3067 3064 3064 3063 3063 3060 3057 3058 3057 3053 3051 3048 3045 3044 3044 3043 3042 3040 3039 3038 3038 3036 3033 3032 3030 3028 3027 3022 3022 3021 3018 3015 3011 3010 3010 3008 3006 3005 3002 3001 3000
3071 3067 3065 3064 3062 3060 3059 3056 3054 3055 3048 3052 3049 3046 3042 3043 3041 3039 3041 3041 3039 3038 3036 3036 3034 3032 3031 3029 3028 3026 3024 3019 3019 3017 3015 3011 3005 3004 3002 3001 3002 3001 3000 2996 2990
3067 3064 3062 3060 3058 3057 3054 3052 3050 3049 3047 3045 3043 3042 3041 3040 3039 3039 3039 3037 3036 3034 3034 3032 3031 3029 3030 3028 3026 3024 3020 3017 3018 3014 3012 3006 2999 2998 2998 2998 2999 2999 2995 2990 2983
3063 3061 3058 3057 3057 3053 3051 3051 3048 3046 3043 3044 3042 3041 3040 3039 3040 3038 3036 3037 3032 3032 3031 3030 3028 3027 3026 3025 3024 3022 3017 3016 3014 3012 3008 3006 3002 2997 2997 2996 2997 2995 2992 2985 2980
3061 3059 3055 3052 3051 3050 3049 3047 3045 3043 3046 3042 3041 3039 3039 3040 3038 3037 3035 3032 3030 3029 3029 3028 3024 3024 3022 3022 3022 3019 3015 3013 3010 3008 3005 3001 3003 2996 2996 2996 2995 2992 2985 2981 2975
3059 3056 3053 3050 3048 3047 3045 3043 3045 3045 3042 3040 3038 3038 3037 3037 3034 3031 3031 3030 3028 3024 3023 3022 3021 3020 3019 3019 3018 3016 3012 3009 3006 3006 3004 2998 3001 2996 2995 2995 2993 2989 2982 2976 2971
3055 3053 3050 3047 3046 3044 3042 3042 3045 3039 3041 3040 3036 3035 3034 3032 3030 3027 3027 3027 3026 3023 3020 3018 3017 3017 3017 3017 3015 3013 3010 3009 3007 3005 3003 2999 2999 2993 2994 2993 2989 2983 2977 2971 2966
3051 3050 3047 3044 3043 3041 3041 3041 3041 3038 3039 3037 3035 3033 3031 3032 3030 3028 3025 3025 3022 3022 3019 3017 3015 3015 3016 3016 3014 3010 3010 3011 3010 3006 3001 2998 2995 2993 2992 2991 2985 2980 2974 2970 2964
3047 3045 3043 3041 3040 3040 3040 3039 3037 3038 3036 3034 3033 3028 3030 3032 3030 3026 3024 3023 3020 3020 3020 3016 3015 3014 3014 3013 3013 3009 3010 3010 3008 3003 3003 2995 2994 2992 2991 2990 2985 2978 2973 2969 2962
3040 3040 3039 3038 3037 3036 3038 3038 3036 3034 3034 3031 3031 3030 3029 3030 3028 3025 3023 3021 3019 3018 3017 3015 3014 3011 3012 3011 3010 3009 3010 3009 3006 3008 3007 2993 2991 2991 2991 2988 2982 2976 2972 2967 2960
3037 3035 3036 3035 3034 3034 3034 3033 3032 3030 3031 3029 3028 3028 3028 3026 3024 3022 3020 3020 3017 3016 3014 3013 3013 3012 3011 3008 3006 3008 3007 3007 3007 3006 3006 3004 2992 2991 2989 2986 2980 2975 2970 2964 2960
3031 3032 3031 3031 3032 3029 3030 3029 3029 3027 3027 3026 3025 3026 3025 3024 3022 3020 3019 3018 3016 3015 3012 3011 3009 3008 3007 3005 3005 3005 3005 3005 3005 3005 3002 3001 2994 2989 2988 2984 2980 2975 2971 2965 2960
3025 3026 3026 3026 3027 3026 3025 3025 3025 3025 3025 3023 3023 3024 3023 3022 3021 3018 3016 3015 3014 3013 3011 3009 3007 3006 3002 3004 3003 3002 3002 3002 3002 3002 2999 3000 2991 2988 2986 2983 2979 2975 2971 2967 2962
3019 3020 3021 3021 3021 3022 3022 3022 3022 3022 3022 3021 3022 3021 3020 3020 3018 3016 3014 3013 3012 3009 3007 3006 3003 3002 3001 3000 3001 3001 3000 3000 3000 2999 2995 2991 2988 2987 2985 2984 2980 2976 2970 2968 2962
3013 3013 3016 3016 3016 3017 3019 3020 3019 3019 3019 3019 3019 3018 3018 3017 3014 3012 3011 3009 3007 3005 3002 3002 2999 2998 2996 2996 2996 2996 2995 2996 2995 2995 2993 2987 2985 2987 2984 2983 2980 2976 2970 2968 2965
3007 3009 3011 3011 3013 3014 3015 3016 3016 3016 3017 3016 3016 3014 3014 3013 3012 3009 3008 3005 3003 3001 3000 2999 2997 2995 2993 2993 2993 2991 2990 2990 2990 2988 2986 2984 2983 2985 2984 2982 2980 2977 2971 2969 2966
3001 3003 3006 3006 3008 3010 3011 3012 3012 3013 3014 3013 3012 3011 3011 3010 3008 3006 3002 3000 2999 2998 2997 2996 2995 2994 2991 2992 2990 2987 2983 2984 2984 2984 2984 2982 2983 2983 2983 2982 2980 2979 2973 2969 2967